Location: Bijele Vode
(45.2833°N, 16.2000°E)
Time: 13:36:52
(UTC+00:00)

NOSS 3-2 (A) - Pass Details

Date: 18 September 2020
Orbit: 795 x 1413 km, 63.4° (Epoch: 28 October)

Event Time Altitude Azimuth Distance (km) Brightness Sun altitude
Rises 18:11:03 0° 322° (NW) 3,906 7.6 -13.2°
Reaches altitude 10° 18:13:40 10° 327° (NNW) 3,033 6.8 -13.6°
Maximum altitude 18:20:54 55° 45° (NE) 1,484 4.3 -14.8°
Enters shadow 18:26:34 21° 115° (ESE) 2,620 5.1 -15.8°
